Location: La Trinit�
(48.1620°N, 3.4512°W)
Time: 09:32:22
(UTC+00:00)

Cosmos 1862 Rocket - Pass Details

Date: 08 May 2021
Orbit: 604 x 633 km, 82.5° (Epoch: 12 June)

Event Time Altitude Azimuth Distance (km) Brightness Sun altitude
Exits shadow 22:57:00 34° 84° (E) 1,005 4.5 -22.5°
Drops below altitude 10° 23:00:42 10° 26° (NNE) 1,965 6.7 -22.7°
Sets 23:03:03 0° 18° (NNE) 2,873 7.8 -22.8°
